This demonstration page uses our WeatherBlox Daily Observations layout. Learn more.

38.89511, -77.03637

Hourly Observations for January 20, 2018

Temp ( °F °C ) Dew Point ( °F °C ) Humidity (%) Winds ( mph kmh ) Pressure ( in mb ) Visibility ( mi km ) Precip ( " mm )
12:52 am 00:52 Clear 33 0.6 24 -4.4 70 70 Calm 30.02 1017 10 16.0934 0 0
1:52 am 01:52 Clear 32 0 20 -6.7 61 61 S 5 7 30.01 1016 10 16.0934 0 0
2:52 am 02:52 Clear 31 -0.6 22 -5.6 69 69 S 8 13 30.01 1016 10 16.0934 0 0
3:52 am 03:52 Clear 30 -1.1 21 -6.1 69 69 SW 5 7 30 1016 10 16.0934 0 0
4:52 am 04:52 Clear 31 -0.6 20 -6.7 64 64 SSW 3 6 30 1016 10 16.0934 0 0
5:52 am 05:52 Clear 29 -1.7 22 -5.6 75 75 SSW 3 6 30.01 1016 10 16.0934 0 0
6:52 am 06:52 Mostly Clear 28 -2.2 22 -5.6 78 78 SSW 6 9 30.01 1016 10 16.0934 0 0
7:52 am 07:52 Partly Cloudy 29 -1.7 23 -5 78 78 S 6 9 30.02 1017 10 16.0934 0 0
8:52 am 08:52 Partly Cloudy 34 1.1 23 -5 64 64 S 6 9 30.04 1017 10 16.0934 0 0
9:52 am 09:52 Partly Cloudy 38 3.3 22 -5.6 52 52 S 8 13 30.05 1018 10 16.0934 0 0
10:52 am 10:52 Partly Cloudy 44 6.7 20 -6.7 38 38 S 8 13 30.04 1017 10 16.0934 0 0
11:52 am 11:52 Partly Cloudy 48 8.9 20 -6.7 33 33 S 10 17 30.01 1016 10 16.0934 0 0
12:52 pm 12:52 Mostly Cloudy 52 11.1 25 -3.9 35 35 S 15 24 29.98 1015 10 16.0934 0 0
1:52 pm 13:52 Mostly Cloudy 61 16.1 29 -1.7 30 30 WSW 12 19 29.98 1015 10 16.0934 0 0
2:52 pm 14:52 Mostly Cloudy 62 16.7 30 -1.1 30 30 SW 13 20 29.97 1015 10 16.0934 0 0
3:52 pm 15:52 Mostly Cloudy 60 15.6 31 -0.6 33 33 SW 9 15 29.98 1015 10 16.0934 0 0
4:52 pm 16:52 Mostly Cloudy 61 16.1 31 -0.6 32 32 WSW 9 15 30.01 1016 10 16.0934 0 0
5:52 pm 17:52 Mostly Cloudy 50 10 32 0 50 50 SSW 6 9 30.01 1016 10 16.0934 0 0
6:52 pm 18:52 Mostly Cloudy 48 8.9 33 0.6 56 56 S 6 9 30.04 1017 10 16.0934 0 0
7:52 pm 19:52 Mostly Clear 47 8.3 33 0.6 59 59 Calm 30.06 1018 10 16.0934 0 0
8:52 pm 20:52 Clear 41 5 32 0 70 70 Calm 30.08 1019 10 16.0934 0 0
9:52 pm 21:52 Clear 37 2.8 31 -0.6 79 79 SSE 5 7 30.09 1019 10 16.0934 0 0
10:52 pm 22:52 Mostly Clear 40 4.4 33 0.6 77 77 S 3 6 30.1 1019 10 16.0934 0 0
11:52 pm 23:52 Mostly Clear 38 3.3 31 -0.6 76 76 S 3 6 30.11 1020 10 16.0934 0 0

Powered by AerisWeather